Location: ??????
(55.7522°N, 37.6156°E)
Time: 17:47:05
(UTC+00:00)

Okean 3 - Pass Details

Date: 14 June 2025
Orbit: 547 x 569 km, 82.5° (Epoch: 12 July)

Event Time Altitude Azimuth Distance (km) Brightness Sun altitude
Exits shadow 20:15:05 10° 187° (S) 1,843 5.4 -9.4°
Maximum altitude 20:19:09 82° 100° (E) 576 3.4 -9.5°
Drops below altitude 10° 20:23:15 10° 13° (NNE) 1,862 7.1 -9.7°
Sets 20:25:26 0° 13° (NNE) 2,759 8.1 -9.8°
